SES-14

Last updated on Thu Nov 21 2024 00:02:43 GMT+0000 (Coordinated Universal Time)

1 43175U 18012B 24325.28585197 -.00000277 00000+0 00000+0 0 9998 2 43175 0.0143 332.9351 0001223 274.9357 227.3424 1.00270019 1275
UTC large
Height (km)
Speed (km/s)
/
Latitude / Longitude
Inclination (degrees)
Orbital Period (minutes)
Azimuth
Elevation
Range (km)
Doppler Factor

Next 0 passes for location: London (51.5072 / 0.1276)

Sorry there are no passes over London.